This demonstration page uses our WeatherBlox Daily Observations layout. Learn more.

38.89511, -77.03637

Hourly Observations for September 10, 2017

Temp ( °F °C ) Dew Point ( °F °C ) Humidity (%) Winds ( mph kmh ) Pressure ( in mb ) Visibility ( mi km ) Precip ( " mm )
12:52 am 00:52 Clear 60 15.6 48 8.9 65 65 NNE 10 17 30.33 1027 10 16.09344 0 0
1:52 am 01:52 Clear 59 15 48 8.9 67 67 NNE 12 19 30.33 1027 10 16.09344 0 0
2:52 am 02:52 Clear 58 14.4 48 8.9 70 70 NNE 8 13 30.33 1027 10 16.09344 0 0
3:52 am 03:52 Clear 56 13.3 48 8.9 75 75 NNW 8 13 30.33 1027 10 16.09344 0 0
4:52 am 04:52 Clear 55 12.8 48 8.9 77 77 NNW 6 9 30.36 1028 10 16.09344 0 0
5:52 am 05:52 Clear 53 11.7 48 8.9 83 83 NNW 7 11 30.36 1028 10 16.09344 0 0
6:52 am 06:52 Mostly Cloudy 54 12.2 49 9.4 83 83 NNW 8 13 30.36 1028 10 16.09344 0 0
7:52 am 07:52 Mostly Cloudy 57 13.9 50 10 78 78 NNW 9 15 30.39 1029 10 16.09344 0 0
8:52 am 08:52 Partly Cloudy 60 15.6 51 10.6 72 72 N 8 13 30.39 1029 10 16.09344 0 0
9:52 am 09:52 Sunny 64 17.8 52 11.1 65 65 N 9 15 30.39 1029 10 16.09344 0 0
10:52 am 10:52 Mostly Sunny 67 19.4 52 11.1 59 59 N 10 17 30.39 1029 10 16.09344 0 0
11:52 am 11:52 Partly Cloudy 69 20.6 53 11.7 57 57 NNE 9 15 30.39 1029 10 16.09344 0 0
12:52 pm 12:52 Partly Cloudy 71 21.7 54 12.2 55 55 NNE 9 15 30.39 1029 10 16.09344 0 0
1:52 pm 13:52 Mostly Cloudy 72 22.2 53 11.7 52 52 NNE 9 15 30.36 1028 10 16.09344 0 0
2:52 pm 14:52 Mostly Cloudy 74 23.3 53 11.7 48 48 ENE 9 15 30.36 1028 10 16.09344 0 0
3:52 pm 15:52 Mostly Cloudy 73 22.8 52 11.1 48 48 NE 7 11 30.36 1028 10 16.09344 0 0
4:52 pm 16:52 Partly Cloudy 73 22.8 52 11.1 48 48 NE 10 17 30.36 1028 10 16.09344 0 0
5:52 pm 17:52 Partly Cloudy 71 21.7 51 10.6 49 49 NNE 7 11 30.36 1028 10 16.09344 0 0
6:52 pm 18:52 Mostly Sunny 70 21.1 52 11.1 53 53 ENE 8 13 30.36 1028 10 16.09344 0 0
7:52 pm 19:52 Partly Cloudy 69 20.6 55 12.8 61 61 E 7 11 30.36 1028 10 16.09344 0 0
8:52 pm 20:52 Mostly Clear 67 19.4 55 12.8 66 66 NE 3 6 30.36 1028 10 16.09344 0 0
9:52 pm 21:52 Mostly Clear 65 18.3 54 12.2 68 68 N 3 6 30.36 1028 10 16.09344 0 0
10:52 pm 22:52 Mostly Cloudy 63 17.2 55 12.8 76 76 N 7 11 30.36 1028 10 16.09344 0 0
11:52 pm 23:52 Mostly Cloudy 61 16.1 56 13.3 84 84 N 6 9 30.33 1027 10 16.09344 0 0

Powered by AerisWeather